DW8052 Weather Reports


time (UTC)temp
C
wind
direction
speed
KPH
gust
KPH
rain 1hr
cm
rain 24hr
cm
rain mn
cm
humidity
%
barometer
mb
20260508120208 15 261 22.5 38.6 0.00 0.00 0.00 55 1021.5
20260508115709 15 252 24.1 38.6 0.00 0.00 0.00 55 1021.4
20260508115208 15 254 24.1 37.0 0.00 0.00 0.00 55 1021.5
20260508114208 15 252 24.1 37.0 0.00 0.00 0.00 55 1021.3
20260508112708 15 256 32.2 41.8 0.00 0.00 0.00 55 1021.2
20260508112209 15 256 27.4 41.8 0.00 0.00 0.00 55 1021.2
20260508111709 15 256 32.2 45.1 0.00 0.00 0.00 55 1021.0
20260508111209 15 258 32.2 46.7 0.00 0.00 0.00 55 1021.1
20260508110708 15 257 27.4 40.2 0.00 0.00 0.00 55 1021.0
20260508110208 15 254 33.8 45.1 0.00 0.00 0.00 55 1021.0
20260508105708 15 249 29.0 45.1 0.00 0.00 0.00 55 1021.0
20260508105208 15 252 35.4 46.7 0.00 0.00 0.00 55 1020.8
20260508104709 15 251 29.0 41.8 0.00 0.00 0.00 55 1020.8
20260508104209 15 260 29.0 45.1 0.00 0.00 0.00 54 1020.7
20260508103708 15 255 33.8 46.7 0.00 0.00 0.00 54 1020.6
20260508103208 15 257 33.8 41.8 0.00 0.00 0.00 54 1020.7
20260508102708 15 259 32.2 45.1 0.00 0.00 0.00 54 1020.6
20260508102208 15 246 33.8 45.1 0.00 0.00 0.00 54 1020.6
20260508101708 15 253 29.0 51.5 0.00 0.00 0.00 54 1020.5
20260508101208 15 256 38.6 48.3 0.00 0.00 0.00 54 1020.5
20260508100709 15 246 35.4 48.3 0.00 0.00 0.00 54 1020.6
20260508100208 15 261 32.2 46.7 0.00 0.00 0.00 54 1020.4
20260508095708 15 261 35.4 49.9 0.00 0.00 0.00 54 1020.1
20260508095209 15 260 33.8 46.7 0.00 0.00 0.00 54 1020.3
20260508094708 15 257 32.2 48.3 0.00 0.00 0.00 54 1020.2
20260508093708 15 253 33.8 45.1 0.00 0.00 0.00 54 1020.1
20260508093208 15 256 33.8 45.1 0.00 0.00 0.00 54 1020.2
20260508092708 15 256 29.0 46.7 0.00 0.00 0.00 54 1020.1
20260508092208 16 257 35.4 46.7 0.00 0.00 0.00 54 1019.9
20260508091709 16 256 33.8 48.3 0.00 0.00 0.00 54 1019.9
20260508091208 16 262 35.4 53.1 0.00 0.00 0.00 53 1019.6
20260508090708 16 258 35.4 56.3 0.00 0.00 0.00 53 1019.8
20260508090208 16 251 33.8 41.8 0.00 0.00 0.00 53 1019.8
20260508085708 16 256 29.0 48.3 0.00 0.00 0.00 53 1019.5
20260508085208 16 258 30.6 46.7 0.00 0.00 0.00 53 1019.4
20260508084708 16 258 27.4 41.8 0.00 0.00 0.00 52 1019.7
20260508083708 16 255 32.2 41.8 0.00 0.00 0.00 51 1019.3
20260508083209 16 258 32.2 41.8 0.00 0.00 0.00 51 1019.3
20260508082708 16 253 30.6 46.7 0.00 0.00 0.00 51 1019.2
20260508082208 16 256 33.8 41.8 0.00 0.00 0.00 50 1019.2
20260508081708 16 254 35.4 51.5 0.00 0.00 0.00 50 1019.0
20260508081208 16 253 40.2 56.3 0.00 0.00 0.00 50 1019.0
20260508080208 16 256 27.4 41.8 0.00 0.00 0.00 50 1018.6
20260508075708 16 260 24.1 41.8 0.00 0.00 0.00 50 1018.7
20260508075208 16 253 29.0 45.1 0.00 0.00 0.00 49 1018.4
20260508074708 16 255 35.4 41.8 0.00 0.00 0.00 48 1018.5
20260508074209 17 262 25.7 38.6 0.00 0.00 0.00 49 1018.3
20260508073708 17 258 27.4 41.8 0.00 0.00 0.00 48 1018.3
20260508073208 17 263 22.5 32.2 0.00 0.00 0.00 48 1018.1
20260508072708 17 261 30.6 41.8 0.00 0.00 0.00 47 1018.1
20260508072209 17 251 25.7 35.4 0.00 0.00 0.00 47 1018.2
20260508071708 17 256 32.2 41.8 0.00 0.00 0.00 46 1018.1
20260508071208 17 259 27.4 38.6 0.00 0.00 0.00 45 1018.2
20260508070708 17 256 27.4 40.2 0.00 0.00 0.00 45 1017.9
20260508070208 17 259 22.5 37.0 0.00 0.00 0.00 45 1017.8
20260508065208 18 259 22.5 32.2 0.00 0.00 0.00 44 1017.9
20260508064708 18 252 27.4 37.0 0.00 0.00 0.00 43 1017.5
20260508064208 18 269 27.4 35.4 0.00 0.00 0.00 43 1017.4
20260508063709 18 250 25.7 40.2 0.00 0.00 0.00 42 1017.2
20260508063208 18 249 33.8 41.8 0.00 0.00 0.00 41 1017.1
20260508062708 18 254 33.8 53.1 0.00 0.00 0.00 40 1017.0
20260508062208 18 241 32.2 41.8 0.00 0.00 0.00 40 1016.9
20260508061708 18 244 29.0 38.6 0.00 0.00 0.00 40 1016.9
20260508061208 19 249 30.6 41.8 0.00 0.00 0.00 41 1016.7
20260508060707 19 243 27.4 41.8 0.00 0.00 0.00 40 1016.5
20260508055708 19 243 37.0 46.7 0.00 0.00 0.00 37 1016.4
20260508055207 19 239 22.5 29.0 0.00 0.00 0.00 39 1016.5
20260508054207 19 235 33.8 41.8 0.00 0.00 0.00 38 1016.3
20260508053707 19 249 40.2 46.7 0.00 0.00 0.00 37 1016.2
20260508053208 19 238 37.0 48.3 0.00 0.00 0.00 38 1016.2
20260508052208 19 269 22.5 32.2 0.00 0.00 0.00 38 1016.1
20260508051707 19 264 20.9 35.4 0.00 0.00 0.00 38 1016.1
20260508051208 19 269 29.0 38.6 0.00 0.00 0.00 38 1016.1
20260508050708 19 276 25.7 35.4 0.00 0.00 0.00 38 1016.1
20260508050207 19 263 12.9 32.2 0.00 0.00 0.00 38 1015.9
20260508045708 20 261 27.4 33.8 0.00 0.00 0.00 38 1016.2
20260508044707 20 260 19.3 32.2 0.00 0.00 0.00 38 1015.9
20260508044208 20 246 19.3 32.2 0.00 0.00 0.00 38 1015.9
20260508043708 19 251 20.9 46.7 0.00 0.00 0.00 38 1015.8
20260508043207 19 249 29.0 41.8 0.00 0.00 0.00 37 1015.6
20260508042708 19 256 33.8 45.1 0.00 0.00 0.00 37 1015.5
20260508042208 19 259 30.6 40.2 0.00 0.00 0.00 37 1015.5
20260508041708 20 253 25.7 37.0 0.00 0.00 0.00 37 1015.6
20260508041208 19 240 29.0 41.8 0.00 0.00 0.00 37 1015.6
20260508040708 19 264 29.0 40.2 0.00 0.00 0.00 37 1015.7
20260508040208 19 260 25.7 41.8 0.00 0.00 0.00 37 1015.7
20260508035708 19 273 24.1 41.8 0.00 0.00 0.00 37 1015.5
20260508035208 20 260 32.2 41.8 0.00 0.00 0.00 36 1015.7
20260508034708 20 262 20.9 41.8 0.00 0.00 0.00 37 1015.5
20260508034207 20 268 29.0 41.8 0.00 0.00 0.00 36 1015.6
20260508033208 19 270 27.4 37.0 0.00 0.00 0.00 37 1015.8
20260508032708 19 250 30.6 45.1 0.00 0.00 0.00 36 1015.7
20260508032208 19 262 29.0 45.1 0.00 0.00 0.00 37 1015.7
20260508031708 19 262 19.3 37.0 0.00 0.00 0.00 38 1015.8
20260508031207 18 270 30.6 45.1 0.00 0.00 0.00 37 1015.8
20260508030708 18 278 29.0 38.6 0.00 0.00 0.00 37 1015.9
20260508030207 18 263 27.4 41.8 0.00 0.00 0.00 37 1015.8
20260508024707 18 258 30.6 49.9 0.00 0.00 0.00 38 1016.0
20260508024208 18 262 37.0 46.7 0.00 0.00 0.00 38 1016.0
20260508023708 18 279 25.7 38.6 0.00 0.00 0.00 38 1016.0
20260508023208 18 270 22.5 45.1 0.00 0.00 0.00 38 1016.1
20260508022708 18 263 29.0 46.7 0.00 0.00 0.00 38 1016.0
20260508022207 18 258 20.9 38.6 0.00 0.00 0.00 39 1016.1
20260508021707 18 262 24.1 41.8 0.00 0.00 0.00 38 1016.1
20260508021208 18 248 32.2 41.8 0.00 0.00 0.00 38 1016.4
20260508020208 18 273 29.0 41.8 0.00 0.00 0.00 39 1016.6
20260508015707 18 273 29.0 41.8 0.00 0.00 0.00 39 1016.4
20260508015207 18 252 25.7 41.8 0.00 0.00 0.00 40 1016.6
20260508014707 18 269 25.7 37.0 0.00 0.00 0.00 40 1016.8
20260508014208 18 264 27.4 37.0 0.00 0.00 0.00 40 1016.6
20260508013707 18 258 33.8 46.7 0.00 0.00 0.00 40 1016.6
20260508013207 18 266 25.7 37.0 0.00 0.00 0.00 41 1016.8
20260508012708 17 277 25.7 41.8 0.00 0.00 0.00 41 1016.8
20260508012207 17 265 38.6 46.7 0.00 0.00 0.00 40 1016.9
20260508010708 17 263 20.9 35.4 0.00 0.00 0.00 42 1017.2
20260508010208 17 264 33.8 45.1 0.00 0.00 0.00 41 1017.1
20260508005707 17 249 27.4 46.7 0.00 0.00 0.00 42 1017.1
20260508005207 17 261 38.6 45.1 0.00 0.00 0.00 42 1017.2
20260508004207 16 273 35.4 49.9 0.00 0.00 0.00 43 1017.5
20260508003708 16 283 35.4 53.1 0.00 0.00 0.00 43 1017.4
20260508003207 16 272 35.4 48.3 0.00 0.00 0.00 44 1017.4
20260508002707 16 269 33.8 49.9 0.00 0.00 0.00 45 1017.5
20260508002207 16 278 20.9 38.6 0.00 0.00 0.00 46 1017.5
20260508001708 16 271 32.2 41.8 0.00 0.00 0.00 45 1017.4
20260508000707 16 271 32.2 41.8 0.00 0.00 0.00 47 1017.8
20260508000207 15 275 33.8 46.7 0.00 0.00 0.00 47 1017.7
20260507235708 15 283 27.4 37.0 0.00 0.00 0.00 47 1017.7
20260507235207 15 276 22.5 32.2 0.00 0.00 0.00 48 1017.7
20260507233207 14 273 33.8 41.8 0.00 0.00 0.00 50 1017.8
20260507232707 14 279 27.4 40.2 0.00 0.00 0.00 50 1017.9
20260507232207 14 275 35.4 46.7 0.00 0.00 0.00 49 1017.8
20260507231707 14 271 29.0 46.7 0.00 0.00 0.00 50 1017.8
20260507231207 14 281 24.1 41.8 0.00 0.00 0.00 51 1017.9
20260507230707 13 279 25.7 49.9 0.00 0.00 0.00 51 1017.8
20260507230207 13 271 38.6 48.3 0.00 0.00 0.00 51 1017.8
20260507225707 13 270 33.8 48.3 0.00 0.00 0.00 51 1017.9
20260507225208 13 268 30.6 46.7 0.00 0.00 0.00 52 1017.7
20260507224207 13 282 35.4 49.9 0.00 0.00 0.00 53 1017.6
20260507223707 12 279 29.0 46.7 0.00 0.00 0.00 53 1017.7
20260507222708 12 287 32.2 41.8 0.00 0.00 0.00 54 1017.9
20260507222208 12 276 29.0 41.8 0.00 0.00 0.00 55 1017.9
20260507221707 12 281 25.7 40.2 0.00 0.00 0.00 55 1017.7
20260507221207 12 282 27.4 40.2 0.00 0.00 0.00 55 1017.6
20260507220207 11 282 25.7 33.8 0.00 0.00 0.00 55 1017.7
20260507215707 11 273 29.0 41.8 0.00 0.00 0.00 56 1017.6
20260507214707 11 285 27.4 38.6 0.00 0.00 0.00 56 1017.7
20260507213708 11 276 29.0 38.6 0.00 0.00 0.00 56 1017.6
20260507213207 11 279 27.4 37.0 0.00 0.00 0.00 56 1017.5
20260507212707 11 281 25.7 37.0 0.00 0.00 0.00 56 1017.5
20260507211707 11 285 32.2 41.8 0.00 0.00 0.00 56 1017.2
20260507211207 11 275 38.6 48.3 0.00 0.00 0.00 56 1017.3
20260507210707 11 282 32.2 41.8 0.00 0.00 0.00 57 1017.1
20260507205707 10 273 30.6 38.6 0.00 0.00 0.00 58 1017.4
20260507205207 10 279 32.2 38.6 0.00 0.00 0.00 58 1017.3
20260507204707 10 281 33.8 41.8 0.00 0.00 0.00 59 1017.2
20260507204207 10 280 25.7 38.6 0.00 0.00 0.00 58 1017.2
20260507203707 10 281 25.7 35.4 0.00 0.00 0.00 58 1017.3
20260507203207 10 284 29.0 35.4 0.00 0.00 0.00 57 1017.4
20260507202706 10 282 29.0 37.0 0.00 0.00 0.00 58 1017.5
20260507202207 10 283 27.4 37.0 0.00 0.00 0.00 57 1017.4
20260507201207 10 282 22.5 35.4 0.00 0.00 0.00 58 1017.5
20260507200707 10 281 24.1 33.8 0.00 0.00 0.00 57 1017.4
20260507200207 10 279 25.7 37.0 0.00 0.00 0.00 58 1017.2
20260507195707 10 279 25.7 37.0 0.00 0.00 0.00 57 1017.3
20260507195207 10 278 27.4 40.2 0.00 0.00 0.00 57 1017.3
20260507194707 10 277 29.0 40.2 0.00 0.00 0.00 57 1017.3
20260507194207 10 278 24.1 35.4 0.00 0.00 0.00 57 1017.4
20260507193707 10 272 27.4 38.6 0.00 0.00 0.00 56 1017.3
20260507193207 10 275 25.7 37.0 0.00 0.00 0.00 56 1017.3
20260507192707 10 275 25.7 37.0 0.00 0.00 0.00 56 1017.3
20260507192207 10 275 24.1 37.0 0.00 0.00 0.00 56 1017.3
20260507191207 10 275 29.0 38.6 0.00 0.00 0.00 55 1017.2
20260507190707 10 273 25.7 38.6 0.00 0.00 0.00 55 1017.1
20260507190207 10 265 27.4 37.0 0.00 0.00 0.00 56 1017.2
20260507185707 10 276 25.7 33.8 0.00 0.00 0.00 55 1017.3
20260507185206 10 281 20.9 29.0 0.00 0.00 0.00 55 1017.4
20260507184707 10 284 22.5 37.0 0.00 0.00 0.00 55 1017.4
20260507184207 10 273 22.5 32.2 0.00 0.00 0.00 55 1017.3
20260507183707 10 271 25.7 35.4 0.00 0.00 0.00 55 1017.3
20260507183206 10 275 27.4 38.6 0.00 0.00 0.00 55 1017.6
20260507182707 10 270 20.9 33.8 0.00 0.00 0.00 55 1017.6
20260507182207 11 273 29.0 41.8 0.00 0.00 0.00 54 1017.4
20260507181707 11 282 22.5 32.2 0.00 0.00 0.00 55 1017.4
20260507181206 11 267 22.5 33.8 0.00 0.00 0.00 55 1017.3
20260507180709 10 272 20.9 40.2 0.00 0.00 0.00 55 1017.2
20260507180207 10 267 27.4 40.2 0.00 0.00 0.00 55 1017.2
20260507175707 10 270 25.7 38.6 0.00 0.00 0.00 55 1017.2
20260507175206 10 262 25.7 35.4 0.00 0.00 0.00 56 1017.2
20260507174207 10 258 27.4 41.8 0.00 0.00 0.00 56 1017.3
20260507173207 10 259 27.4 41.8 0.00 0.00 0.00 55 1017.4
20260507172706 10 261 25.7 37.0 0.00 0.00 0.00 56 1017.6
20260507172206 10 264 22.5 35.4 0.00 0.00 0.00 56 1017.6
20260507171706 10 273 22.5 35.4 0.00 0.00 0.00 56 1017.6
20260507171206 10 261 25.7 38.6 0.00 0.00 0.00 55 1017.8
20260507170706 10 271 29.0 38.6 0.00 0.00 0.00 55 1017.6
20260507170207 10 272 25.7 35.4 0.00 0.00 0.00 55 1017.7
20260507165706 10 275 29.0 41.8 0.00 0.00 0.00 54 1017.7
20260507165206 10 275 22.5 32.2 0.00 0.00 0.00 54 1017.9
20260507164206 10 269 25.7 32.2 0.00 0.00 0.00 54 1017.9
20260507163206 10 273 29.0 41.8 0.00 0.00 0.00 54 1017.9
20260507162706 10 270 27.4 41.8 0.00 0.00 0.00 54 1018.0
20260507162206 10 271 33.8 45.1 0.00 0.00 0.00 53 1018.0
20260507161706 10 267 25.7 40.2 0.00 0.00 0.00 54 1017.9
20260507161206 10 266 29.0 41.8 0.00 0.00 0.00 54 1018.0
20260507160706 10 272 30.6 41.8 0.00 0.00 0.00 53 1018.1
20260507155707 10 277 35.4 49.9 0.00 0.00 0.00 52 1018.2
20260507155206 10 267 33.8 41.8 0.00 0.00 0.00 52 1018.3
20260507154706 10 276 29.0 41.8 0.00 0.00 0.00 52 1018.3
20260507154206 10 269 30.6 46.7 0.00 0.00 0.00 52 1018.5
20260507153707 10 269 30.6 40.2 0.00 0.00 0.00 51 1018.5
20260507153206 10 269 30.6 48.3 0.00 0.00 0.00 52 1018.5
20260507152706 10 270 25.7 37.0 0.00 0.00 0.00 51 1018.6
20260507151707 10 269 25.7 40.2 0.00 0.00 0.00 51 1018.6
20260507151206 10 262 30.6 40.2 0.00 0.00 0.00 51 1018.8
20260507150706 10 273 20.9 32.2 0.00 0.00 0.00 50 1018.9
20260507150206 10 271 25.7 37.0 0.00 0.00 0.00 50 1018.8
20260507145706 10 278 20.9 33.8 0.00 0.00 0.00 50 1018.8
20260507145207 10 278 25.7 48.3 0.00 0.00 0.00 49 1018.9
20260507144706 10 261 29.0 45.1 0.00 0.00 0.00 49 1019.1
20260507144206 10 271 27.4 45.1 0.00 0.00 0.00 49 1019.1
20260507143707 10 266 29.0 41.8 0.00 0.00 0.00 49 1019.1
20260507143206 10 270 37.0 49.9 0.00 0.00 0.00 48 1019.0
20260507142706 10 257 33.8 51.5 0.00 0.00 0.00 48 1019.1
20260507142206 11 271 30.6 49.9 0.00 0.00 0.00 48 1018.9
20260507141707 11 262 32.2 49.9 0.00 0.00 0.00 48 1018.9
20260507140706 11 266 27.4 40.2 0.00 0.00 0.00 48 1018.9
20260507140206 11 258 29.0 40.2 0.00 0.00 0.00 47 1019.0
20260507135706 11 260 33.8 46.7 0.00 0.00 0.00 47 1018.8
20260507134706 11 256 40.2 51.5 0.00 0.00 0.00 47 1018.7
20260507134206 11 265 37.0 49.9 0.00 0.00 0.00 47 1018.7
20260507133706 11 268 33.8 48.3 0.00 0.00 0.00 47 1018.9
20260507133206 11 265 38.6 49.9 0.00 0.00 0.00 47 1018.8
20260507132706 11 262 38.6 53.1 0.00 0.00 0.00 47 1018.8
20260507132206 11 246 29.0 45.1 0.00 0.00 0.00 48 1018.7
20260507131206 11 258 32.2 45.1 0.00 0.00 0.00 47 1018.8
20260507130706 11 253 33.8 46.7 0.00 0.00 0.00 47 1018.8
20260507130206 11 256 41.8 56.3 0.00 0.00 0.00 46 1018.6
20260507125706 11 258 32.2 48.3 0.00 0.00 0.00 48 1018.8
20260507125206 11 259 29.0 48.3 0.00 0.00 0.00 47 1018.7
20260507124706 11 260 38.6 51.5 0.00 0.00 0.00 46 1018.7
20260507124206 11 263 27.4 40.2 0.00 0.00 0.00 46 1018.6
20260507123706 11 266 25.7 41.8 0.00 0.00 0.00 46 1018.7
20260507123206 11 257 32.2 49.9 0.00 0.00 0.00 46 1019.0
20260507122707 11 271 29.0 40.2 0.00 0.00 0.00 46 1019.0
20260507122206 11 269 33.8 48.3 0.00 0.00 0.00 45 1019.0
20260507121706 11 273 20.9 35.4 0.00 0.00 0.00 46 1019.2
20260507121206 11 269 29.0 45.1 0.00 0.00 0.00 45 1018.8